Regional Weather Roundup
Issued by NWS

Home | Current Version | Previous Version | Graphics & Text | Print | Product List | Glossary On
Versions: 1 2 3 4 5 6 7 8 9 10 11 12 13 14 15 16 17 18 19 20 21 22 23 24 25 26 27 28 29 30 31 32 33 34 35 36 37 38 39 40 41 42 43 44 45 46 47 48 49 50
000
ASUS43 KOAX 272110
RWRNE

WEATHER ROUNDUP FOR NEBRASKA
NATIONAL WEATHER SERVICE OMAHA NE
400 PM CDT SAT AUG 27 2016

NOTES: SATELLITE DATA IS BEING USED TO AUGMENT CLOUD COVER ABOVE
       12000 FEET.
       "FAIR" INDICATES FEW OR NO CLOUDS BELOW 12,000 FEET WITH NO
       SIGNIFICANT WEATHER AND/OR OBSTRUCTIONS TO VISIBILITY.

  * THESE STATIONS DO NOT REPORT WEATHER SUCH AS RAIN...SNOW OR FOG.

NEZ001>004-019>022-054>056-272200-
NEBRASKA PANHANDLE

CITY           SKY/WX    TMP DP  RH WIND       PRES   REMARKS
SCOTTSBLUFF    SUNNY     85  49  28 E12G17    29.98F
ALLIANCE       SUNNY     83  43  24 SW10      29.99F
CHADRON        SUNNY     85  41  21 VRB3      29.92F
KIMBALL        MOSUNNY   80  49  32 S9G17     30.05F
SIDNEY         SUNNY     82  44  26 W7        30.05F
$$

NEZ057>060-069>072-079>082-272200-
SOUTHWEST NEBRASKA

CITY           SKY/WX    TMP DP  RH WIND       PRES   REMARKS
NORTH PLATTE   SUNNY     86  60  41 S10       29.99F
IMPERIAL       SUNNY     81  59  47 S10       30.01F
LEXINGTON      SUNNY     82  60  47 S14       30.01F
MCCOOK         SUNNY     84  63  49 SE10G20   29.99F
OGALLALA       SUNNY     84  57  39 SW7       29.99F
$$

NEZ005>010-023>029-035>040-094-272200-
NORTH CENTRAL NEBRASKA

CITY           SKY/WX    TMP DP  RH WIND       PRES   REMARKS
VALENTINE      SUNNY     84  57  39 S12G22    29.95F
AINSWORTH      SUNNY     83  59  44 S10G21    29.97S
BROKEN BOW     SUNNY     82  61  48 S14G28    29.99F
O`NEILL        SUNNY     85  55  36 S17       29.97F
ORD            SUNNY     82  60  47 S10       29.97F
THEDFORD       MOSUNNY   85  61  44 S17G25    29.98F
$$

NEZ041-046>049-061>064-073>077-083>087-272200-
SOUTH CENTRAL NEBRASKA

CITY           SKY/WX    TMP DP  RH WIND       PRES   REMARKS
GRAND ISLAND   SUNNY     85  58  39 S10       30.00F
AURORA         SUNNY     82  62  50 SE6       30.01S
HASTINGS       SUNNY     84  61  45 S10       30.02F
HEBRON         SUNNY     82  66  59 S5        30.00F
HOLDREGE       SUNNY     82  60  47 SE10      30.01F
KEARNEY *      SUNNY     82  63  51 S17       30.00F
YORK           MOSUNNY   82  64  54 SW6       30.01F
$$

NEZ011>018-030>034-042>045-272200-
NORTHEAST NEBRASKA

CITY           SKY/WX    TMP DP  RH WIND       PRES   REMARKS
NORFOLK        SUNNY     80  62  54 SE8       29.98F
ALBION         SUNNY     79  62  55 S10       29.99F
BLAIR          SUNNY     80  65  59 SW7       30.00F
FREMONT        SUNNY     80  65  59 SW6       30.00F
TEKAMAH        SUNNY     80  65  59 VRB5      29.99F
WAYNE          MOSUNNY   77  67  71 S9        30.00F
$$

NEZ050>053-065>068-078-088>093-272200-
SOUTHEAST NEBRASKA

CITY           SKY/WX    TMP DP  RH WIND       PRES   REMARKS
LINCOLN        SUNNY     85  63  47 CALM      30.00F
OMAHA EPPLEY   MOSUNNY   84  65  52 SW8       29.99F
BEATRICE       SUNNY     82  66  57 S5        30.00F
FALLS CITY     MOSUNNY   84  69  60 SW6       29.99F
NEBRASKA CITY  PTSUNNY   81  66  61 S6        30.01S
PLATTSMOUTH    PTSUNNY   82  67  61 S6        30.00F
$$

NEZ044-045-051>053-067-272200-
OMAHA AREA

CITY           SKY/WX    TMP DP  RH WIND       PRES   REMARKS
OMAHA EPPLEY   MOSUNNY   84  65  52 SW8       29.99F
BLAIR          SUNNY     80  65  59 SW7       30.00F
FREMONT        SUNNY     80  65  59 SW6       30.00F
MILLARD        MOSUNNY   81  66  60 SW3       29.99F
OFFUTT AFB     SUNNY     82  67  59 S7        29.99F
PLATTSMOUTH    PTSUNNY   82  67  61 S6        30.00F
WAHOO          FAIR      81  65  59 S7        30.00F
$$




USA.gov is the U.S. government's official web portal to all federal, state and local government web resources and services.